Time,TemperatureF,DewpointF,PressureIn,WindDirection,WindDirectionDegrees,WindSpeedMPH,WindSpeedGustMPH,Humidity,HourlyPrecipIn,Conditions,Clouds,dailyrainin,SolarRadiationWatts/m^2,SoftwareType,DateUTC
2013-05-13 00:11:00,41.2,37.0,30.09,NNW,333,0.0,0.0,85,0.00,,,0.00,0,weatherlink.com 1.10,2013-05-13 04:11:00,
2013-05-13 00:26:00,41.0,37.0,30.10,NNW,333,0.0,1.0,85,0.00,,,0.00,0,weatherlink.com 1.10,2013-05-13 04:26:00,
2013-05-13 00:41:00,40.4,37.0,30.10,NNW,333,0.0,0.0,87,0.00,,,0.00,0,weatherlink.com 1.10,2013-05-13 04:41:00,
2013-05-13 00:56:00,39.8,37.0,30.10,NNW,333,0.0,0.0,88,0.00,,,0.00,0,weatherlink.com 1.10,2013-05-13 04:56:00,
2013-05-13 01:11:00,39.9,37.0,30.10,ENE,71,0.0,3.0,88,0.00,,,0.00,0,weatherlink.com 1.10,2013-05-13 05:11:00,
2013-05-13 01:26:00,40.0,36.0,30.10,ENE,70,0.0,2.0,86,0.00,,,0.00,0,weatherlink.com 1.10,2013-05-13 05:26:00,
2013-05-13 01:41:00,39.6,36.0,30.10,ENE,70,0.0,2.0,86,0.00,,,0.00,0,weatherlink.com 1.10,2013-05-13 05:41:00,
2013-05-13 01:56:00,39.8,36.0,30.10,ENE,70,0.0,2.0,86,0.00,,,0.00,0,weatherlink.com 1.10,2013-05-13 05:56:00,
2013-05-13 02:11:00,39.5,36.0,30.09,ENE,70,0.0,2.0,87,0.00,,,0.00,0,weatherlink.com 1.10,2013-05-13 06:11:00,
2013-05-13 02:26:00,38.9,36.0,30.09,ENE,70,0.0,0.0,88,0.00,,,0.00,0,weatherlink.com 1.10,2013-05-13 06:26:00,
2013-05-13 02:41:00,38.6,35.0,30.09,ENE,70,0.0,0.0,88,0.00,,,0.00,0,weatherlink.com 1.10,2013-05-13 06:41:00,
2013-05-13 02:56:00,38.3,35.0,30.09,ENE,70,0.0,1.0,89,0.00,,,0.00,0,weatherlink.com 1.10,2013-05-13 06:56:00,
2013-05-13 03:11:00,37.5,35.0,30.09,ENE,70,0.0,0.0,90,0.00,,,0.00,0,weatherlink.com 1.10,2013-05-13 07:11:00,
2013-05-13 03:26:00,36.9,35.0,30.09,ENE,70,0.0,0.0,91,0.00,,,0.00,0,weatherlink.com 1.10,2013-05-13 07:26:00,
2013-05-13 03:41:00,36.9,35.0,30.09,ENE,70,0.0,0.0,91,0.00,,,0.00,0,weatherlink.com 1.10,2013-05-13 07:41:00,
2013-05-13 03:56:00,36.9,35.0,30.10,ENE,70,0.0,0.0,92,0.00,,,0.00,0,weatherlink.com 1.10,2013-05-13 07:56:00,
2013-05-13 04:11:00,37.3,35.0,30.10,ENE,69,0.0,2.0,91,0.00,,,0.00,0,weatherlink.com 1.10,2013-05-13 08:11:00,
2013-05-13 04:26:00,37.4,35.0,30.10,ENE,69,0.0,1.0,91,0.00,,,0.00,0,weatherlink.com 1.10,2013-05-13 08:26:00,
2013-05-13 04:41:00,37.1,35.0,30.11,ENE,69,0.0,1.0,90,0.00,,,0.00,0,weatherlink.com 1.10,2013-05-13 08:41:00,
2013-05-13 04:56:00,36.6,34.0,30.11,ENE,69,0.0,2.0,91,0.00,,,0.00,0,weatherlink.com 1.10,2013-05-13 08:56:00,
2013-05-13 05:11:00,36.5,34.0,30.12,ENE,69,0.0,0.0,91,0.00,,,0.00,0,weatherlink.com 1.10,2013-05-13 09:11:00,
2013-05-13 05:26:00,36.5,34.0,30.12,ENE,69,0.0,0.0,91,0.00,,,0.00,0,weatherlink.com 1.10,2013-05-13 09:26:00,
2013-05-13 05:41:00,36.1,34.0,30.13,ENE,69,0.0,0.0,91,0.00,,,0.00,0,weatherlink.com 1.10,2013-05-13 09:41:00,
2013-05-13 05:56:00,36.2,34.0,30.13,ENE,69,0.0,0.0,92,0.00,,,0.00,0,weatherlink.com 1.10,2013-05-13 09:56:00,
2013-05-13 06:11:00,35.9,34.0,30.14,ENE,69,0.0,2.0,92,0.00,,,0.00,0,weatherlink.com 1.10,2013-05-13 10:11:00,
2013-05-13 06:26:00,35.7,34.0,30.14,East,82,0.0,1.0,92,0.00,,,0.00,0,weatherlink.com 1.10,2013-05-13 10:26:00,
2013-05-13 06:41:00,35.6,34.0,30.15,East,82,0.0,0.0,92,0.00,,,0.00,5,weatherlink.com 1.10,2013-05-13 10:41:00,
2013-05-13 06:56:00,35.5,33.0,30.16,SSE,147,0.0,0.0,92,0.00,,,0.00,14,weatherlink.com 1.10,2013-05-13 10:56:00,
2013-05-13 07:11:00,35.8,34.0,30.17,SSE,166,0.0,1.0,92,0.00,,,0.00,19,weatherlink.com 1.10,2013-05-13 11:11:00,
2013-05-13 07:26:00,36.6,35.0,30.18,SSE,166,0.0,0.0,93,0.00,,,0.00,26,weatherlink.com 1.10,2013-05-13 11:26:00,
2013-05-13 07:41:00,39.1,37.0,30.17,ESE,112,0.0,2.0,91,0.00,,,0.00,30,weatherlink.com 1.10,2013-05-13 11:41:00,
2013-05-13 07:57:00,41.9,39.0,30.18,West,273,0.0,2.0,88,0.00,,,0.00,33,weatherlink.com 1.10,2013-05-13 11:57:00,
2013-05-13 08:12:00,44.0,40.0,30.18,North,350,0.0,2.0,86,0.00,,,0.00,40,weatherlink.com 1.10,2013-05-13 12:12:00,
2013-05-13 08:27:00,46.5,42.0,30.18,NNE,18,0.0,1.0,84,0.00,,,0.00,134,weatherlink.com 1.10,2013-05-13 12:27:00,
2013-05-13 08:42:00,48.6,43.0,30.19,ENE,78,0.0,1.0,80,0.00,,,0.00,315,weatherlink.com 1.10,2013-05-13 12:42:00,
2013-05-13 08:57:00,50.1,43.0,30.19,SSE,155,0.0,1.0,76,0.00,,,0.00,413,weatherlink.com 1.10,2013-05-13 12:57:00,
2013-05-13 09:12:00,50.3,39.0,30.20,SSW,193,3.0,5.0,66,0.00,,,0.00,471,weatherlink.com 1.10,2013-05-13 13:12:00,
2013-05-13 09:27:00,50.5,35.0,30.20,WNW,285,2.0,6.0,56,0.00,,,0.00,520,weatherlink.com 1.10,2013-05-13 13:27:00,
2013-05-13 09:42:00,51.0,35.0,30.20,NW,322,2.0,7.0,55,0.00,,,0.00,568,weatherlink.com 1.10,2013-05-13 13:42:00,
2013-05-13 09:57:00,51.5,33.0,30.20,NNW,346,3.0,8.0,49,0.00,,,0.00,613,weatherlink.com 1.10,2013-05-13 13:57:00,
2013-05-13 10:12:00,52.7,33.0,30.20,NW,313,5.0,8.0,48,0.00,,,0.00,661,weatherlink.com 1.10,2013-05-13 14:12:00,
2013-05-13 10:27:00,53.5,31.0,30.20,NNW,339,1.0,9.0,43,0.00,,,0.00,701,weatherlink.com 1.10,2013-05-13 14:27:00,
2013-05-13 10:42:00,54.2,31.0,30.20,WNW,283,2.0,10.0,42,0.00,,,0.00,742,weatherlink.com 1.10,2013-05-13 14:42:00,
2013-05-13 10:57:00,54.8,33.0,30.20,WNW,294,4.0,10.0,44,0.00,,,0.00,779,weatherlink.com 1.10,2013-05-13 14:57:00,
2013-05-13 11:12:00,55.8,32.0,30.20,SW,232,5.0,11.0,40,0.00,,,0.00,817,weatherlink.com 1.10,2013-05-13 15:12:00,
2013-05-13 11:28:00,55.7,34.0,30.20,South,178,5.0,9.0,45,0.00,,,0.00,844,weatherlink.com 1.10,2013-05-13 15:28:00,
2013-05-13 11:43:00,55.9,33.0,30.21,West,269,1.0,8.0,42,0.00,,,0.00,872,weatherlink.com 1.10,2013-05-13 15:43:00,
2013-05-13 11:58:00,55.7,35.0,30.21,WNW,293,6.0,11.0,46,0.00,,,0.00,896,weatherlink.com 1.10,2013-05-13 15:58:00,
2013-05-13 12:13:00,56.6,36.0,30.20,SW,215,5.0,11.0,47,0.00,,,0.00,919,weatherlink.com 1.10,2013-05-13 16:13:00,
2013-05-13 12:28:00,56.8,34.0,30.19,WSW,238,1.0,11.0,43,0.00,,,0.00,937,weatherlink.com 1.10,2013-05-13 16:28:00,
2013-05-13 12:43:00,57.5,36.0,30.19,South,174,4.0,9.0,45,0.00,,,0.00,960,weatherlink.com 1.10,2013-05-13 16:43:00,
2013-05-13 12:58:00,58.6,34.0,30.19,West,269,6.0,10.0,39,0.00,,,0.00,962,weatherlink.com 1.10,2013-05-13 16:58:00,
2013-05-13 13:13:00,59.5,32.0,30.18,NW,316,6.0,13.0,36,0.00,,,0.00,969,weatherlink.com 1.10,2013-05-13 17:13:00,
2013-05-13 13:28:00,59.3,33.0,30.18,SW,221,10.0,16.0,37,0.00,,,0.00,970,weatherlink.com 1.10,2013-05-13 17:28:00,
2013-05-13 13:43:00,60.2,37.0,30.18,West,259,9.0,12.0,43,0.00,,,0.00,972,weatherlink.com 1.10,2013-05-13 17:43:00,
2013-05-13 13:58:00,60.4,34.0,30.17,WNW,294,4.0,9.0,37,0.00,,,0.00,970,weatherlink.com 1.10,2013-05-13 17:58:00,
2013-05-13 14:13:00,61.0,36.0,30.17,WSW,247,7.0,14.0,39,0.00,,,0.00,963,weatherlink.com 1.10,2013-05-13 18:13:00,
2013-05-13 14:28:00,60.7,35.0,30.16,SW,235,4.0,15.0,38,0.00,,,0.00,953,weatherlink.com 1.10,2013-05-13 18:28:00,
2013-05-13 14:43:00,60.3,35.0,30.16,SSW,213,7.0,17.0,39,0.00,,,0.00,937,weatherlink.com 1.10,2013-05-13 18:43:00,
2013-05-13 14:58:00,60.8,35.0,30.16,West,267,4.0,17.0,39,0.00,,,0.00,919,weatherlink.com 1.10,2013-05-13 18:58:00,
2013-05-13 15:13:00,61.1,35.0,30.15,SW,233,7.0,15.0,38,0.00,,,0.00,891,weatherlink.com 1.10,2013-05-13 19:13:00,
2013-05-13 15:28:00,61.4,35.0,30.14,SW,235,4.0,17.0,37,0.00,,,0.00,865,weatherlink.com 1.10,2013-05-13 19:28:00,
2013-05-13 15:43:00,61.4,34.0,30.14,West,275,7.0,15.0,36,0.00,,,0.00,837,weatherlink.com 1.10,2013-05-13 19:43:00,
2013-05-13 15:58:00,61.4,32.0,30.13,WNW,294,11.0,15.0,33,0.00,,,0.00,805,weatherlink.com 1.10,2013-05-13 19:58:00,
2013-05-13 16:13:00,61.5,33.0,30.13,NNW,336,7.0,16.0,35,0.00,,,0.00,770,weatherlink.com 1.10,2013-05-13 20:13:00,
2013-05-13 16:28:00,61.6,33.0,30.13,NW,318,4.0,15.0,34,0.00,,,0.00,733,weatherlink.com 1.10,2013-05-13 20:28:00,
2013-05-13 16:43:00,61.6,31.0,30.12,NNW,332,6.0,15.0,31,0.00,,,0.00,693,weatherlink.com 1.10,2013-05-13 20:43:00,
2013-05-13 16:58:00,61.4,32.0,30.12,WNW,301,7.0,17.0,33,0.00,,,0.00,650,weatherlink.com 1.10,2013-05-13 20:58:00,
2013-05-13 17:13:00,61.7,34.0,30.12,WNW,284,7.0,16.0,35,0.00,,,0.00,603,weatherlink.com 1.10,2013-05-13 21:13:00,
2013-05-13 17:28:00,61.8,33.0,30.12,NW,319,14.0,16.0,34,0.00,,,0.00,554,weatherlink.com 1.10,2013-05-13 21:28:00,
2013-05-13 17:43:00,61.6,34.0,30.13,West,261,2.0,14.0,35,0.00,,,0.00,499,weatherlink.com 1.10,2013-05-13 21:43:00,
2013-05-13 17:58:00,61.5,33.0,30.12,WNW,296,4.0,16.0,35,0.00,,,0.00,455,weatherlink.com 1.10,2013-05-13 21:58:00,
2013-05-13 18:13:00,61.1,33.0,30.12,NNW,327,8.0,13.0,35,0.00,,,0.00,401,weatherlink.com 1.10,2013-05-13 22:13:00,
2013-05-13 18:28:00,61.0,34.0,30.12,North,350,6.0,13.0,36,0.00,,,0.00,350,weatherlink.com 1.10,2013-05-13 22:28:00,
2013-05-13 18:43:00,60.9,34.0,30.12,WNW,288,8.0,13.0,37,0.00,,,0.00,297,weatherlink.com 1.10,2013-05-13 22:43:00,
2013-05-13 18:58:00,61.3,36.0,30.12,NW,317,5.0,7.0,39,0.00,,,0.00,241,weatherlink.com 1.10,2013-05-13 22:58:00,
2013-05-13 19:13:00,60.8,34.0,30.12,WNW,299,2.0,13.0,37,0.00,,,0.00,181,weatherlink.com 1.10,2013-05-13 23:13:00,
2013-05-13 19:28:00,60.1,35.0,30.12,NW,311,0.0,11.0,39,0.00,,,0.00,123,weatherlink.com 1.10,2013-05-13 23:28:00,
2013-05-13 19:43:00,59.7,35.0,30.13,WSW,242,6.0,7.0,40,0.00,,,0.00,74,weatherlink.com 1.10,2013-05-13 23:43:00,
2013-05-13 19:58:00,58.3,34.0,30.13,WSW,246,4.0,7.0,41,0.00,,,0.00,21,weatherlink.com 1.10,2013-05-13 23:58:00,
2013-05-13 20:13:00,57.6,36.0,30.14,North,355,3.0,6.0,44,0.00,,,0.00,14,weatherlink.com 1.10,2013-05-14 00:13:00,
2013-05-13 20:28:00,56.9,35.0,30.14,West,269,2.0,6.0,44,0.00,,,0.00,7,weatherlink.com 1.10,2013-05-14 00:28:00,
2013-05-13 20:43:00,55.9,35.0,30.15,West,278,1.0,4.0,46,0.00,,,0.00,0,weatherlink.com 1.10,2013-05-14 00:43:00,
2013-05-13 20:58:00,55.2,36.0,30.15,WNW,284,1.0,3.0,48,0.00,,,0.00,0,weatherlink.com 1.10,2013-05-14 00:58:00,
2013-05-13 21:13:00,54.4,35.0,30.16,NW,309,1.0,5.0,48,0.00,,,0.00,0,weatherlink.com 1.10,2013-05-14 01:13:00,
2013-05-13 21:28:00,54.4,35.0,30.16,WNW,292,2.0,6.0,48,0.00,,,0.00,0,weatherlink.com 1.10,2013-05-14 01:28:00,
2013-05-13 21:43:00,54.1,35.0,30.17,NW,309,0.0,4.0,49,0.00,,,0.00,0,weatherlink.com 1.10,2013-05-14 01:43:00,
2013-05-13 21:58:00,52.9,37.0,30.18,NW,309,0.0,2.0,56,0.00,,,0.00,0,weatherlink.com 1.10,2013-05-14 01:58:00,
2013-05-13 22:13:00,49.4,38.0,30.18,NW,309,1.0,2.0,64,0.00,,,0.00,0,weatherlink.com 1.10,2013-05-14 02:13:00,
2013-05-13 22:28:00,47.0,38.0,30.18,NW,309,0.0,1.0,71,0.00,,,0.00,0,weatherlink.com 1.10,2013-05-14 02:28:00,
2013-05-13 22:43:00,46.0,38.0,30.18,NW,309,0.0,2.0,74,0.00,,,0.00,0,weatherlink.com 1.10,2013-05-14 02:43:00,
2013-05-13 22:58:00,44.9,37.0,30.19,NW,309,0.0,0.0,75,0.00,,,0.00,0,weatherlink.com 1.10,2013-05-14 02:58:00,
2013-05-13 23:13:00,44.4,38.0,30.19,NW,309,0.0,0.0,77,0.00,,,0.00,0,weatherlink.com 1.10,2013-05-14 03:13:00,
2013-05-13 23:28:00,43.6,37.0,30.20,NW,309,0.0,0.0,78,0.00,,,0.00,0,weatherlink.com 1.10,2013-05-14 03:28:00,
2013-05-13 23:43:00,42.9,37.0,30.20,NW,309,0.0,0.0,80,0.00,,,0.00,0,weatherlink.com 1.10,2013-05-14 03:43:00,
2013-05-13 23:58:00,42.9,37.0,30.19,NW,309,0.0,0.0,80,0.00,,,0.00,0,weatherlink.com 1.10,2013-05-14 03:58:00,